When you browse on this site, cookies collect data to enhance your experience and personalize the content and advertising you see.
Visit our Privacy Policy to learn more. By continuing to use the site, you agree to this use of cookies and data.
  • In Belgium
  • List of Countries
  • For 7 days
  • Water Temperature
  • Satellite Maps
  • Weather Map
  • Weather Widgets
  • user-avatar
    Login

    Hourly Weather Vahnovo

    Today, 19 June, Wednesday

    Time Temperature Precipitation Wind Pressure Humidity
    00:00 +18°C° 0 mm 3 mps 743 mmHg 93%
    01:00 +17°C° 0 mm 3 mps 743 mmHg 94%
    02:00 +17°C° 0 mm 3 mps 743 mmHg 94%
    03:00 +17°C° 0 mm 3 mps 744 mmHg 93%
    04:00 +17°C° 0 mm 2 mps 744 mmHg 92%
    05:00 +18°C° 0 mm 2 mps 744 mmHg 91%
    06:00 +19°C° 0 mm 2 mps 744 mmHg 86%
    07:00 +21°C° 0 mm 3 mps 745 mmHg 81%
    08:00 +24°C° 0 mm 3 mps 745 mmHg 76%
    09:00 +25°C° 0.2 mm 3 mps 745 mmHg 69%
    10:00 +26°C° 0.2 mm 3 mps 745 mmHg 63%
    11:00 +27°C° 0.2 mm 3 mps 745 mmHg 57%
    12:00 +27°C° 0.2 mm 3 mps 745 mmHg 59%
    13:00 +27°C° 0.2 mm 3 mps 745 mmHg 61%
    14:00 +27°C° 0.2 mm 3 mps 745 mmHg 62%
    15:00 +26°C° 0.1 mm 3 mps 745 mmHg 65%
    16:00 +26°C° 0.1 mm 3 mps 745 mmHg 67%
    17:00 +26°C° 0.1 mm 2 mps 745 mmHg 69%
    18:00 +24°C° 0 mm 2 mps 745 mmHg 75%
    19:00 +21°C° 0 mm 2 mps 745 mmHg 80%
    20:00 +20°C° 0 mm 2 mps 745 mmHg 85%
    21:00 +19°C° 0 mm 2 mps 745 mmHg 86%
    22:00 +18°C° 0 mm 2 mps 746 mmHg 86%
    23:00 +18°C° 0 mm 1 mps 746 mmHg 87%

    Tomorrow, 20 June, Thursday

    Time Temperature Precipitation Wind Pressure Humidity
    00:00 +18°C° 0 mm 1 mps 746 mmHg 86%
    01:00 +16°C° 0 mm 1 mps 746 mmHg 85%
    02:00 +16°C° 0 mm 1 mps 746 mmHg 84%
    03:00 +16°C° 0 mm 1 mps 746 mmHg 83%
    04:00 +18°C° 0 mm 1 mps 746 mmHg 83%
    05:00 +18°C° 0 mm 1 mps 747 mmHg 83%
    06:00 +20°C° 0 mm 1 mps 747 mmHg 78%
    07:00 +21°C° 0 mm 1 mps 747 mmHg 73%
    08:00 +23°C° 0 mm 2 mps 747 mmHg 68%
    09:00 +24°C° 0 mm 2 mps 747 mmHg 63%
    10:00 +25°C° 0 mm 2 mps 747 mmHg 59%
    11:00 +26°C° 0 mm 2 mps 747 mmHg 54%
    12:00 +27°C° 0 mm 2 mps 747 mmHg 52%
    13:00 +27°C° 0 mm 2 mps 747 mmHg 51%
    14:00 +28°C° 0 mm 2 mps 746 mmHg 50%
    15:00 +27°C° 0 mm 2 mps 746 mmHg 54%
    16:00 +27°C° 0 mm 2 mps 746 mmHg 58%
    17:00 +27°C° 0 mm 1 mps 746 mmHg 62%
    18:00 +25°C° 0 mm 1 mps 746 mmHg 65%
    19:00 +23°C° 0 mm 1 mps 746 mmHg 69%
    20:00 +21°C° 0 mm 1 mps 746 mmHg 73%
    21:00 +21°C° 0 mm 1 mps 747 mmHg 75%
    22:00 +20°C° 0 mm 1 mps 747 mmHg 78%
    23:00 +19°C° 0 mm 1 mps 747 mmHg 80%

    Day after tomorrow, 21 June, Friday

    Time Temperature Precipitation Wind Pressure Humidity
    00:00 +19°C° 0 mm 1 mps 747 mmHg 82%
    01:00 +18°C° 0 mm 1 mps 747 mmHg 83%
    02:00 +18°C° 0 mm 1 mps 747 mmHg 85%
    03:00 +19°C° 0 mm 1 mps 747 mmHg 85%
    04:00 +19°C° 0 mm 1 mps 747 mmHg 85%
    05:00 +20°C° 0 mm 1 mps 747 mmHg 85%
    06:00 +21°C° 0 mm 1 mps 748 mmHg 80%
    07:00 +23°C° 0 mm 2 mps 748 mmHg 74%
    08:00 +25°C° 0 mm 2 mps 748 mmHg 68%
    09:00 +26°C° 0 mm 2 mps 748 mmHg 64%
    10:00 +27°C° 0 mm 2 mps 748 mmHg 59%
    11:00 +28°C° 0 mm 2 mps 748 mmHg 55%
    12:00 +28°C° 0 mm 2 mps 748 mmHg 55%
    13:00 +28°C° 0 mm 2 mps 747 mmHg 56%
    14:00 +28°C° 0 mm 2 mps 747 mmHg 56%
    15:00 +28°C° 0 mm 2 mps 747 mmHg 59%
    16:00 +28°C° 0 mm 2 mps 747 mmHg 63%
    17:00 +27°C° 0 mm 2 mps 747 mmHg 66%
    18:00 +26°C° 0 mm 2 mps 747 mmHg 69%
    19:00 +24°C° 0 mm 1 mps 747 mmHg 72%
    20:00 +22°C° 0 mm 1 mps 747 mmHg 75%
    21:00 +22°C° 0 mm 1 mps 747 mmHg 76%
    22:00 +20°C° 0 mm 2 mps 747 mmHg 78%
    23:00 +19°C° 0 mm 2 mps 747 mmHg 80%

    22 June, Saturday

    Time Temperature Precipitation Wind Pressure Humidity
    00:00 +19°C° 0 mm 2 mps 747 mmHg 81%
    01:00 +19°C° 0 mm 1 mps 747 mmHg 82%
    02:00 +19°C° 0 mm 1 mps 747 mmHg 83%
    03:00 +19°C° 0 mm 1 mps 747 mmHg 83%
    04:00 +20°C° 0 mm 1 mps 747 mmHg 83%
    05:00 +20°C° 0 mm 1 mps 747 mmHg 83%
    06:00 +22°C° 0 mm 1 mps 748 mmHg 78%
    07:00 +24°C° 0 mm 2 mps 748 mmHg 73%
    08:00 +25°C° 0 mm 2 mps 748 mmHg 68%
    09:00 +26°C° 0 mm 2 mps 748 mmHg 63%
    10:00 +27°C° 0 mm 2 mps 748 mmHg 59%
    11:00 +28°C° 0 mm 3 mps 748 mmHg 54%
    12:00 +29°C° 0 mm 3 mps 748 mmHg 54%
    13:00 +29°C° 0 mm 3 mps 748 mmHg 54%
    14:00 +29°C° 0 mm 3 mps 747 mmHg 54%
    15:00 +29°C° 0 mm 2 mps 747 mmHg 57%
    16:00 +29°C° 0 mm 2 mps 747 mmHg 59%
    17:00 +28°C° 0 mm 2 mps 747 mmHg 62%
    18:00 +27°C° 0 mm 1 mps 747 mmHg 66%
    19:00 +25°C° 0 mm 1 mps 747 mmHg 70%
    20:00 +23°C° 0 mm 1 mps 747 mmHg 74%
    21:00 +22°C° 0 mm 1 mps 747 mmHg 75%
    22:00 +22°C° 0 mm 1 mps 747 mmHg 77%
    23:00 +21°C° 0 mm 1 mps 747 mmHg 78%

    23 June, Sunday

    Time Temperature Precipitation Wind Pressure Humidity
    00:00 +21°C° 0 mm 1 mps 747 mmHg 79%
    01:00 +20°C° 0 mm 1 mps 747 mmHg 80%
    02:00 +20°C° 0 mm 1 mps 747 mmHg 82%
    03:00 +20°C° 0 mm 1 mps 748 mmHg 80%
    04:00 +21°C° 0 mm 1 mps 748 mmHg 80%
    05:00 +22°C° 0 mm 1 mps 748 mmHg 80%
    06:00 +23°C° 0 mm 1 mps 748 mmHg 75%
    07:00 +25°C° 0 mm 1 mps 748 mmHg 70%
    08:00 +26°C° 0 mm 2 mps 748 mmHg 65%
    09:00 +27°C° 0 mm 2 mps 748 mmHg 60%
    10:00 +28°C° 0 mm 2 mps 748 mmHg 55%
    11:00 +29°C° 0 mm 2 mps 748 mmHg 51%
    12:00 +29°C° 0 mm 2 mps 748 mmHg 52%
    13:00 +29°C° 0 mm 2 mps 748 mmHg 53%
    14:00 +30°C° 0 mm 2 mps 748 mmHg 54%
    15:00 +29°C° 0 mm 2 mps 747 mmHg 56%
    16:00 +29°C° 0 mm 2 mps 747 mmHg 57%
    17:00 +29°C° 0 mm 1 mps 747 mmHg 59%
    18:00 +27°C° 0 mm 1 mps 747 mmHg 62%
    19:00 +26°C° 0 mm 1 mps 747 mmHg 65%
    20:00 +24°C° 0 mm 2 mps 747 mmHg 69%
    21:00 +23°C° 0 mm 2 mps 747 mmHg 69%
    22:00 +21°C° 0 mm 2 mps 747 mmHg 69%
    23:00 +21°C° 0 mm 2 mps 747 mmHg 70%

    24 June, Monday

    Time Temperature Precipitation Wind Pressure Humidity
    00:00 +20°C° 0 mm 2 mps 747 mmHg 71%
    01:00 +20°C° 0 mm 2 mps 747 mmHg 71%
    02:00 +20°C° 0 mm 2 mps 747 mmHg 72%
    03:00 +20°C° 0 mm 2 mps 747 mmHg 74%
    04:00 +20°C° 0 mm 2 mps 747 mmHg 76%
    05:00 +21°C° 0 mm 2 mps 747 mmHg 79%
    06:00 +23°C° 0 mm 2 mps 747 mmHg 74%
    07:00 +25°C° 0 mm 3 mps 747 mmHg 70%
    08:00 +27°C° 0 mm 3 mps 747 mmHg 65%
    09:00 +28°C° 0 mm 3 mps 747 mmHg 62%
    10:00 +29°C° 0 mm 3 mps 747 mmHg 58%
    11:00 +30°C° 0 mm 4 mps 747 mmHg 55%
    12:00 +30°C° 0 mm 4 mps 746 mmHg 54%
    13:00 +30°C° 0 mm 3 mps 746 mmHg 53%
    14:00 +31°C° 0 mm 3 mps 746 mmHg 52%
    15:00 +30°C° 0.1 mm 3 mps 746 mmHg 57%
    16:00 +30°C° 0.1 mm 3 mps 745 mmHg 61%
    17:00 +29°C° 0.1 mm 2 mps 745 mmHg 66%
    18:00 +28°C° 0.2 mm 2 mps 745 mmHg 68%
    19:00 +26°C° 0.2 mm 2 mps 745 mmHg 70%
    20:00 +24°C° 0.2 mm 2 mps 745 mmHg 73%
    21:00 +23°C° 0.2 mm 1 mps 745 mmHg 74%
    22:00 +22°C° 0.2 mm 1 mps 745 mmHg 76%
    23:00 +22°C° 0.2 mm 1 mps 745 mmHg 77%
    Show more